Terminal Aerodrome Forecast
Issued by NWS Omaha/Valley, NE

Home | Current Version | Previous Version | Graphics & Text | Print | Product List | Glossary On
Versions: 1 2 3 4 5 6 7 8 9 10 11 12 13 14 15 16 17 18 19 20 21 22 23 24 25 26 27 28 29 30 31 32 33 34 35 36 37 38 39 40 41
000
FTUS43 KOAX 241127
TAFOFK
TAF
KOFK 241127Z 2412/2512 13012KT P6SM SCT015 OVC060
      TEMPO 2414/2416 -RA BKN015
     FM241600 14010KT 4SM -RA BR BKN008 OVC015
     FM242000 15006KT P6SM SCT015
     FM250300 16003KT 4SM BR FEW008 SCT250
     FM250900 29008KT P6SM BKN100=

USA.gov is the U.S. government's official web portal to all federal, state and local government web resources and services.